Date,TemperatureHighF,TemperatureAvgF,TemperatureLowF,DewpointHighF,DewpointAvgF,DewpointLowF,HumidityHigh,HumidityAvg,HumidityLow,PressureMaxIn,PressureMinIn,WindSpeedMaxMPH,WindSpeedAvgMPH,GustSpeedMaxMPH,PrecipitationSumIn
2013-1-1,24,14,1,14,9,-1,97,80,59,30.36,30.23,14,5,17,0.00
2013-1-2,32,18,0,22,12,-2,94,78,64,30.31,30.17,14,8,17,0.00
2013-1-3,34,25,9,30,22,8,99,89,76,30.45,30.23,15,7,21,0.00
2013-1-4,36,23,7,25,18,6,99,82,63,30.43,30.32,22,9,26,0.00
2013-1-5,39,32,24,35,29,20,99,88,75,30.32,30.10,18,10,23,0.01
2013-1-6,36,28,23,32,22,18,87,79,63,30.41,30.10,21,10,25,0.00
2013-1-7,45,33,21,30,25,19,92,74,56,30.40,30.15,15,5,21,0.00
2013-1-8,51,39,32,36,29,26,76,67,54,30.19,30.09,13,7,17,0.00
2013-1-9,52,40,33,40,34,31,96,81,54,30.54,30.17,15,4,17,0.00
2013-1-10,47,38,32,46,35,29,99,90,66,30.50,29.84,18,7,22,0.46
2013-1-11,59,52,34,54,48,34,99,89,70,29.87,29.73,19,12,24,0.02
2013-1-12,56,38,22,49,32,22,99,79,57,30.11,29.77,20,12,24,0.00
2013-1-13,22,18,11,22,13,8,99,80,68,30.40,30.04,18,10,23,0.00
2013-1-14,27,16,7,14,10,7,99,81,53,30.55,30.39,9,2,11,0.00
2013-1-15,32,18,7,19,13,6,99,84,58,30.49,30.22,7,1,10,0.00
2013-1-16,40,27,10,28,20,10,99,75,52,30.22,30.01,22,8,27,0.00
2013-1-17,36,30,23,33,24,18,98,78,53,30.52,30.19,15,6,18,0.00
2013-1-18,51,38,24,35,28,21,88,68,50,30.51,30.08,23,12,29,0.00
2013-1-19,55,45,37,41,35,25,81,68,57,30.20,29.93,25,12,32,0.05
2013-1-20,36,21,15,27,12,7,87,69,52,30.43,30.21,27,2,30,0.00
2013-1-21,15,11,8,11,1,-5,85,62,45,30.45,30.37,0,0,1,0.00
2013-1-22,15,10,4,4,0,-4,73,63,52,30.54,30.41,0,0,0,0.00
2013-1-23,38,23,9,23,13,4,90,67,52,30.49,30.21,0,0,0,0.00
2013-1-24,24,17,9,12,6,0,75,61,46,30.68,30.32,0,0,3,0.30
2013-1-25,42,30,23,24,18,12,78,61,44,30.32,30.14,0,0,0,0.00
2013-1-26,72,26,12,49,15,8,83,64,40,30.47,30.32,9,3,14,1.49
2013-1-27,50,34,25,50,32,19,99,91,73,30.35,29.90,15,10,19,0.02
2013-1-28,62,54,50,60,54,49,99,99,92,30.00,29.81,14,7,17,0.05
2013-1-29,65,56,37,62,55,37,99,98,90,29.81,29.51,30,10,43,1.75
2013-1-30,37,30,21,37,27,15,99,91,72,29.93,29.41,27,12,36,0.54
2013-1-31,24,16,6,20,9,-2,89,75,66,30.43,29.93,27,20,33,0.00
2013-2-1,24,12,1,20,4,-5,91,71,58,30.52,30.23,21,11,25,0.00
2013-2-2,32,28,24,24,20,17,93,74,65,30.23,30.12,18,11,22,0.00
2013-2-3,34,28,23,28,21,17,99,77,52,30.25,30.01,24,10,24,0.00
2013-2-4,41,31,26,31,24,19,90,77,65,30.06,29.84,23,10,23,0.00
2013-2-5,47,34,25,36,29,23,99,85,65,30.18,29.93,24,9,24,0.00
2013-2-6,53,37,25,37,32,25,99,83,52,30.26,30.06,14,6,14,0.00
2013-2-7,48,38,32,48,37,32,99,96,76,30.16,29.93,18,8,18,0.44
2013-2-8,34,32,29,33,30,28,99,94,83,30.43,30.16,20,8,20,0.00
2013-2-9,39,32,28,36,30,27,99,92,80,30.41,30.04,16,10,17,0.02
2013-2-10,60,45,35,54,40,31,99,86,47,30.03,29.49,35,17,49,0.37
2013-2-11,44,36,29,32,28,24,94,72,60,30.21,29.76,36,20,46,0.05
2013-2-12,44,32,24,32,28,24,99,83,57,30.23,30.00,7,3,11,0.00
2013-2-13,48,37,27,37,31,26,96,80,63,30.00,29.83,16,7,20,0.00
2013-2-14,48,40,33,36,33,28,92,77,61,30.15,29.81,21,11,26,0.00
2013-2-15,37,29,22,30,18,13,89,64,44,30.35,30.15,18,12,24,0.00
2013-2-16,34,24,14,22,16,10,97,71,51,30.33,30.22,15,8,23,0.00
2013-2-17,45,31,18,31,23,16,92,74,51,30.23,29.90,15,10,20,0.00
2013-2-18,56,41,26,51,36,21,99,82,65,29.94,29.54,28,15,38,0.64
2013-2-19,26,20,16,21,14,9,82,75,62,30.36,29.95,30,20,36,0.13
2013-2-20,20,15,6,16,9,2,86,75,65,30.51,30.35,18,9,21,0.04
2013-2-21,27,21,16,27,20,15,99,94,84,30.40,29.93,27,15,32,0.01
2013-2-22,31,28,24,30,25,20,99,89,78,30.09,29.83,24,13,24,0.00
2013-2-23,31,24,14,22,18,12,92,77,67,30.10,30.04,11,6,13,0.01
2013-2-24,44,26,8,29,20,7,99,80,53,30.18,30.07,11,4,12,0.00
2013-2-25,40,31,19,34,28,19,99,88,73,30.16,29.85,27,9,31,0.00
2013-2-26,39,33,28,39,32,28,99,98,87,29.85,29.54,26,20,34,0.08
2013-2-27,32,31,30,32,31,29,99,99,99,29.94,29.72,14,11,17,0.07
2013-2-28,34,31,28,32,30,28,99,96,86,30.18,29.94,14,10,17,0.01
2013-3-1,31,27,25,28,26,23,99,93,80,30.31,30.15,15,10,17,0.00
2013-3-2,33,24,6,24,18,6,99,78,54,30.34,30.28,14,7,17,0.00
2013-3-3,39,23,2,25,16,1,99,76,51,30.28,30.08,12,4,14,0.00
2013-3-4,39,34,29,32,30,24,99,88,73,30.09,29.85,22,15,25,0.00
2013-3-5,34,31,29,32,28,24,99,90,76,30.22,29.93,25,14,34,0.01
2013-3-6,34,25,16,25,22,15,99,86,67,30.42,30.23,18,9,25,0.00
2013-3-7,37,29,22,29,25,21,99,84,66,30.48,30.38,10,6,12,0.00
2013-3-8,44,35,25,36,31,25,99,87,70,30.45,30.23,12,8,15,0.00
2013-3-9,52,40,35,42,38,34,99,92,66,30.22,29.80,14,9,17,0.80
2013-3-10,50,45,38,50,45,38,99,99,89,29.84,29.62,18,5,24,0.67
2013-3-11,38,33,30,38,32,26,99,96,83,30.02,29.74,20,15,25,0.02
2013-3-12,39,31,26,32,27,21,95,83,69,30.27,30.01,28,15,35,0.02
2013-3-13,39,30,23,26,21,17,99,71,47,30.48,30.27,18,11,31,0.00
2013-3-14,56,39,25,44,31,24,99,75,50,30.43,30.14,14,5,17,0.00
2013-3-15,62,45,30,52,40,30,99,83,62,30.14,29.74,12,4,14,0.00
2013-3-16,44,38,35,44,36,34,99,94,84,30.17,29.71,21,11,24,0.00
2013-3-17,34,33,32,33,32,31,97,96,94,30.18,30.16,16,14,19,0.00
2013-3-18,48,36,29,40,32,21,99,85,52,30.06,29.77,32,15,33,0.05
2013-3-19,43,32,24,24,19,13,75,58,37,30.26,30.04,21,12,30,0.00
2013-3-20,32,26,18,22,14,7,82,62,45,30.35,30.19,23,15,28,0.00
2013-3-21,36,26,14,22,16,11,89,68,44,30.19,30.05,12,6,14,0.00
2013-3-22,42,32,21,29,22,19,96,71,43,30.13,30.06,10,3,14,0.00
2013-3-23,51,40,32,35,30,27,99,71,45,30.14,29.97,23,9,27,0.00
2013-3-24,35,30,29,35,30,28,99,99,99,30.03,29.77,24,17,28,0.00
2013-3-25,34,30,28,31,28,26,99,93,73,30.25,29.92,16,10,21,0.02
2013-3-26,32,30,28,28,27,25,90,86,83,30.30,30.26,13,9,17,0.00
2013-3-27,51,36,21,35,27,21,99,72,39,30.45,30.36,6,2,6,0.00
2013-3-28,50,38,27,38,31,26,99,77,53,30.42,30.31,16,6,16,0.00
2013-3-29,63,46,33,46,38,32,99,77,40,30.35,30.24,14,5,14,0.00
2013-3-30,55,46,36,48,43,36,99,89,63,30.26,29.97,17,7,17,0.00
2013-3-31,63,51,40,52,44,32,99,78,43,30.07,29.91,23,11,23,0.00
2013-4-1,46,37,29,32,24,17,81,60,33,30.34,30.07,22,12,28,0.00
2013-4-2,49,36,22,27,22,13,99,60,24,30.42,30.32,13,6,17,0.00
2013-4-3,52,38,25,30,24,21,94,61,31,30.49,30.32,16,6,21,0.00
2013-4-4,63,47,29,34,28,24,90,53,26,30.32,30.09,11,3,14,0.00
2013-4-5,66,51,35,39,35,27,99,60,25,30.26,30.05,14,6,16,0.00
2013-4-6,73,61,50,53,43,38,71,53,34,30.05,29.72,30,15,40,0.01
2013-4-7,78,60,40,53,46,40,99,63,29,30.01,29.80,11,4,14,0.00
2013-4-8,77,64,55,67,60,53,99,89,61,29.90,29.68,22,8,37,0.64
2013-4-9,78,70,62,66,63,60,99,81,66,29.88,29.82,21,10,30,0.00
2013-4-10,67,52,45,65,52,45,99,99,91,30.00,29.71,28,12,36,0.99
2013-4-11,49,43,38,49,41,32,99,92,79,29.76,29.69,25,14,30,0.05
2013-4-12,44,39,36,37,35,33,92,85,77,30.03,29.73,21,14,27,0.00
2013-4-13,40,38,33,36,32,29,87,80,71,30.10,30.02,17,12,23,0.00
2013-4-14,79,62,46,57,49,42,99,67,33,29.95,29.58,28,13,36,0.27
2013-4-15,60,54,43,60,50,41,99,89,69,30.05,29.77,16,8,21,0.20
2013-4-16,50,46,41,47,41,37,99,85,70,30.24,30.06,16,11,19,0.06
2013-4-17,57,48,34,57,47,34,99,95,79,30.24,29.78,28,16,43,1.31
2013-4-18,64,52,38,63,51,33,99,96,82,29.81,29.52,36,16,36,2.20
2013-4-19,46,39,36,34,32,30,87,74,56,30.12,29.77,29,20,34,0.00
2013-4-20,55,42,30,37,32,28,99,70,41,30.40,30.13,8,5,13,0.00
2013-4-21,64,51,39,49,42,35,89,72,51,30.44,30.27,18,12,22,0.00
2013-4-22,71,60,44,51,44,38,83,58,31,30.30,30.02,16,8,21,0.08
2013-4-23,57,44,38,52,43,37,99,97,80,30.11,29.99,19,11,24,0.59
2013-4-24,52,43,35,38,35,31,99,75,45,30.25,30.09,17,11,24,0.02
2013-4-25,63,50,38,44,37,33,94,64,35,30.38,30.22,17,9,24,0.00
2013-4-26,63,54,44,51,45,38,86,73,59,30.37,30.28,21,9,27,0.00
2013-4-27,54,50,44,54,49,43,99,97,84,30.34,30.04,13,6,15,0.14
2013-4-28,68,57,50,57,53,50,99,89,65,30.03,29.91,10,7,14,0.01
2013-4-29,83,66,49,66,58,49,99,77,54,29.96,29.73,17,10,23,0.00
2013-4-30,86,76,67,64,60,53,88,61,32,29.96,29.77,21,12,32,0.00
2013-5-1,85,74,60,62,56,51,82,56,35,30.16,29.97,18,7,21,0.18
2013-5-2,60,48,38,52,44,38,99,87,73,30.29,30.16,19,13,23,0.18
2013-5-3,56,40,33,56,40,33,99,99,99,30.22,29.83,19,13,23,1.93
2013-5-4,54,48,43,54,47,42,99,97,87,30.10,29.83,14,2,16,0.05
2013-5-5,71,58,47,62,55,46,99,91,68,30.09,29.97,19,6,28,0.00
2013-5-6,76,65,54,59,56,52,99,75,43,30.10,30.02,18,8,21,0.00
2013-5-7,84,69,54,57,52,44,95,59,26,30.11,30.04,8,1,11,0.22
2013-5-8,84,68,52,62,56,50,99,71,32,30.10,30.03,9,0,11,0.00
2013-5-9,70,64,47,67,63,47,99,96,86,30.02,29.88,11,2,14,0.45
2013-5-10,64,56,51,64,55,51,99,97,86,30.08,29.90,15,7,21,0.01
2013-5-11,61,54,44,56,42,30,99,68,37,30.23,30.04,23,10,37,0.13
2013-5-12,61,50,36,39,33,28,88,54,29,30.31,30.18,14,6,19,0.00
2013-5-13,74,58,37,47,41,35,99,58,29,30.26,30.03,8,1,18,0.02
2013-5-14,90,74,58,66,57,46,77,57,38,30.02,29.79,22,8,29,0.00
2013-5-15,89,78,70,66,61,57,73,56,42,29.94,29.85,19,10,23,0.00
2013-5-16,88,75,64,69,64,57,89,71,46,29.99,29.89,13,1,18,0.00
2013-5-17,77,65,58,65,60,58,99,86,65,30.03,29.97,6,1,14,0.00
2013-5-18,85,74,62,71,66,62,99,80,54,30.07,29.93,10,2,10,0.00
2013-5-19,90,78,69,77,70,63,96,79,59,29.95,29.72,27,7,27,0.00
2013-5-20,84,70,59,72,64,58,99,83,49,29.91,29.71,30,8,36,1.30
2013-5-21,79,70,62,67,63,58,99,80,58,29.80,29.72,17,8,21,0.00
2013-5-22,71,64,59,62,58,55,99,81,63,29.91,29.73,17,7,25,0.00
2013-5-23,70,60,53,59,55,53,99,86,58,30.31,29.92,20,10,24,0.33
2013-5-24,71,59,46,53,48,43,99,70,38,30.48,30.32,12,3,15,0.00
2013-5-25,62,56,51,57,52,47,99,88,65,30.42,30.22,17,8,21,0.77
2013-5-26,74,61,50,67,59,48,99,93,78,30.26,30.05,17,10,21,0.33
2013-5-27,76,67,61,70,65,60,99,93,71,30.05,29.72,26,4,36,1.72
2013-5-28,78,72,62,74,69,62,99,92,79,30.00,29.73,18,6,31,2.61
2013-5-29,87,75,62,73,68,62,99,79,54,30.00,29.84,13,5,23,0.07
2013-5-30,85,77,64,73,69,64,99,78,62,29.92,29.77,27,12,38,0.60
2013-5-31,74,66,56,72,66,56,99,98,89,29.96,29.76,18,3,18,0.83
2013-6-1,77,68,62,71,64,59,99,89,62,29.93,29.75,19,8,29,0.00
2013-6-2,65,60,57,62,56,48,99,85,70,30.11,29.92,12,7,17,0.00
2013-6-3,72,62,51,56,53,48,99,75,50,30.18,30.06,8,2,14,0.00
2013-6-4,78,65,52,62,57,52,99,78,51,30.17,30.05,13,3,17,0.05
2013-6-5,85,70,57,66,62,57,99,77,47,30.10,29.95,6,1,8,0.00
2013-6-7,75,65,57,61,58,55,99,81,53,30.02,29.97,16,6,16,0.00
2013-6-8,84,69,53,63,58,53,99,71,42,30.02,29.94,8,0,8,0.00
2013-6-9,77,68,62,67,62,58,99,83,66,29.96,29.83,12,1,12,0.12
2013-6-10,80,70,62,66,64,62,99,84,59,29.97,29.82,13,3,13,0.00
2013-6-11,92,78,61,75,69,61,99,77,47,30.00,29.89,19,2,19,0.00
2013-6-12,96,84,70,76,73,69,99,73,50,29.97,29.73,28,9,28,0.00
2013-6-13,86,76,67,68,62,56,99,66,35,30.08,29.83,29,10,29,0.04
2013-6-14,84,72,63,68,63,60,98,75,47,30.18,29.94,23,4,30,0.00
2013-6-15,96,77,67,78,70,64,99,82,51,30.14,29.94,17,2,27,0.97
2013-6-16,88,76,67,75,71,66,99,85,60,30.04,29.97,8,1,8,0.01
2013-6-17,91,78,66,74,69,65,99,77,48,30.04,29.97,8,1,8,0.00
2013-6-18,85,76,67,72,69,65,99,79,57,30.07,29.96,13,4,13,0.00
2013-6-19,88,75,61,67,63,59,99,70,41,30.16,30.07,5,1,11,0.00
2013-6-20,91,80,65,73,68,62,97,70,47,30.17,30.07,4,1,13,0.00
2013-6-21,94,84,73,77,74,70,96,74,53,30.12,29.99,11,2,17,0.00
2013-6-22,94,84,74,78,74,64,88,72,52,30.12,29.99,10,4,15,0.00
2013-6-23,91,76,70,76,70,64,99,84,61,30.08,29.93,20,2,27,0.22
2013-6-24,90,79,69,78,73,68,99,83,64,30.11,29.92,17,2,21,1.74
2013-6-25,92,83,77,78,76,73,99,79,62,29.99,29.85,11,1,14,0.00
2013-6-26,90,80,66,82,76,66,99,89,69,29.88,29.80,11,2,17,0.21
2013-6-27,91,81,71,78,73,69,99,79,50,29.97,29.87,11,4,21,0.00
2013-6-28,87,79,69,72,64,58,99,65,38,29.92,29.78,20,8,26,0.00
2013-6-29,76,68,64,69,65,61,99,90,67,29.87,29.76,17,7,21,0.21
2013-6-30,80,69,63,67,64,62,99,86,58,30.06,29.87,15,9,21,0.05
2013-7-1,81,70,60,64,58,53,94,67,39,30.12,30.05,17,9,22,0.00
2013-7-2,77,66,59,64,58,55,97,78,52,30.12,30.08,8,1,10,0.00
2013-7-3,86,72,61,66,63,58,99,76,43,30.14,30.07,2,0,5,0.00
2013-7-4,91,77,63,67,64,60,99,70,38,30.15,30.05,2,0,7,0.00
2013-7-5,90,78,63,68,65,62,98,67,41,30.13,30.05,4,0,13,0.00
2013-7-6,92,78,64,72,68,64,99,76,47,30.10,30.01,3,0,8,0.00
2013-7-7,92,85,72,75,72,67,86,64,52,30.07,30.02,8,1,10,0.00
2013-7-8,88,80,75,80,74,69,98,82,72,30.13,30.04,3,0,7,0.12
2013-7-9,94,85,78,80,76,73,88,76,57,30.09,29.94,9,1,13,0.01
2013-7-10,90,81,66,77,71,63,94,72,51,30.10,29.91,12,5,17,0.00
2013-7-11,86,72,59,68,62,59,99,75,39,30.17,30.10,8,1,11,0.00
2013-7-12,88,73,58,63,60,52,99,69,37,30.21,30.13,9,1,14,0.00
2013-7-13,87,74,57,67,62,56,99,71,45,30.19,30.11,9,1,11,0.00
2013-7-14,90,78,63,72,68,63,99,75,48,30.22,30.15,9,2,11,0.00
2013-7-15,94,81,69,79,74,69,99,82,54,30.30,30.22,12,1,14,0.00
2013-7-16,95,84,71,78,75,71,99,78,52,30.36,30.28,2,0,8,0.00
2013-7-17,102,90,77,80,77,73,95,68,44,30.36,30.25,1,0,2,0.00
2013-7-18,98,87,73,79,76,73,99,72,47,30.27,30.05,4,0,9,0.00
2013-7-19,97,86,76,77,73,70,94,68,43,30.06,29.89,14,4,19,0.00
2013-7-20,90,80,69,73,70,66,99,73,45,29.99,29.91,10,4,14,0.00
2013-7-21,84,73,66,76,71,66,99,94,72,29.99,29.89,5,0,7,0.20
2013-7-22,92,78,67,78,73,66,99,86,62,29.94,29.83,14,1,21,0.01
2013-7-23,85,75,64,73,68,63,99,80,59,30.01,29.85,13,6,18,0.00
2013-7-24,80,70,60,64,61,57,99,77,47,30.12,30.00,9,4,14,0.00
2013-7-25,87,72,54,66,61,54,99,73,45,30.18,30.11,4,0,8,0.00
2013-7-26,84,71,60,75,66,60,99,86,67,30.11,29.98,10,1,27,0.50
2013-7-27,73,64,52,60,55,51,99,75,48,30.10,30.04,14,6,22,0.02
2013-7-28,79,64,48,59,54,47,99,73,43,30.13,30.05,13,4,19,0.00
2013-7-29,82,67,50,66,60,50,99,79,41,30.21,30.14,2,0,7,0.01
2013-7-30,82,71,60,74,69,60,99,94,75,30.19,30.05,9,2,12,0.89
2013-7-31,81,72,66,72,69,66,99,92,71,30.14,30.07,7,3,10,0.05
2013-8-1,94,76,62,74,67,62,99,76,37,30.14,30.01,6,0,8,0.00
2013-8-2,87,75,69,75,70,66,99,84,64,30.03,29.95,9,1,15,0.00
2013-8-3,83,73,62,70,66,61,99,80,48,30.21,30.01,9,3,13,0.00
2013-8-4,85,71,56,66,63,56,99,79,47,30.26,30.13,2,0,4,0.00
2013-8-5,82,71,62,73,68,61,99,89,72,30.16,29.91,5,1,8,0.00
2013-8-6,92,78,67,80,73,66,99,88,64,29.97,29.87,6,0,8,0.00
2013-8-7,90,78,68,82,75,68,99,91,72,30.01,29.85,8,2,11,0.05
2013-8-8,83,73,62,73,69,62,99,89,66,30.07,30.00,7,3,10,0.00
2013-8-9,70,67,65,70,67,65,99,99,99,30.07,30.05,0,0,1,0.00
2013-10-25,57,40,23,35,28,23,99,66,31,30.52,30.20,17,3,17,0.00
2013-10-26,60,47,30,40,31,25,89,56,29,30.22,30.06,19,8,19,0.00
2013-10-27,62,42,24,39,30,24,99,67,32,30.20,30.03,11,1,11,0.00
2013-10-28,70,49,29,40,33,27,97,60,23,30.31,30.10,8,1,8,0.00
2013-10-29,55,48,38,54,45,36,99,90,67,30.31,30.12,11,5,11,0.01
2013-10-30,66,60,54,66,60,54,99,99,99,30.12,29.82,8,1,8,0.07
2013-10-31,66,56,41,66,56,41,99,99,99,29.81,29.46,17,5,17,0.07
2013-11-1,58,48,42,55,44,41,99,86,59,29.89,29.61,15,7,20,0.01
2013-11-2,56,46,32,44,39,31,98,77,47,30.24,29.88,16,7,21,0.00
2013-11-3,59,44,28,41,35,28,99,73,44,30.32,30.15,14,4,21,0.00
2013-11-4,58,52,44,48,43,37,79,72,64,30.23,30.11,15,6,23,0.00
2013-11-5,60,55,51,57,53,48,99,95,76,30.26,29.97,14,6,19,0.25
2013-11-6,66,45,30,66,43,30,99,93,79,30.32,29.90,19,8,24,0.50
2013-11-7,54,38,27,41,32,27,99,82,46,30.39,30.32,15,4,21,0.01
2013-11-8,50,34,24,36,30,24,99,87,53,30.39,30.04,14,2,17,0.00
2013-11-9,51,51,50,40,40,39,68,66,64,30.02,30.01,19,14,19,0.00
2013-11-13,47,38,20,22,17,12,88,45,25,30.65,30.26,16,6,21,0.00
2013-11-14,57,42,34,27,23,19,62,47,30,30.27,30.03,18,8,23,0.00
2013-11-15,57,46,40,44,36,25,91,67,48,30.06,29.91,11,3,15,0.00
2013-11-16,50,49,47,48,47,45,94,93,91,29.92,29.87,13,12,20,0.00
2013-11-17,73,58,43,70,54,42,99,85,59,30.01,29.33,34,14,34,5.63
2013-11-18,54,41,28,42,34,27,99,80,43,30.36,30.02,20,5,20,0.00
2013-11-19,53,37,25,35,30,24,99,80,48,30.40,30.24,9,2,9,0.00
2013-11-20,58,38,36,58,36,31,99,90,73,30.24,30.05,14,5,14,0.33
2013-11-21,48,45,38,48,44,38,99,96,87,30.34,30.09,14,4,14,0.18
2013-11-22,43,32,22,42,31,22,99,95,85,30.62,30.33,19,8,19,0.04
2013-11-23,26,22,20,21,19,15,98,87,65,30.75,30.61,19,8,19,0.87
2013-11-24,31,20,8,15,10,7,97,70,40,30.81,30.42,11,5,13,0.00
2013-11-25,36,30,25,22,18,13,81,61,50,30.43,30.19,16,9,19,0.00
2013-11-26,35,28,21,30,22,12,96,78,52,30.31,30.15,21,9,27,0.00
2013-11-27,29,20,12,12,10,8,86,65,43,30.43,30.33,12,8,12,0.00
2013-11-28,42,32,20,25,21,16,88,65,50,30.56,30.24,16,8,20,0.00
2013-11-29,44,28,13,28,21,12,98,77,47,30.64,30.39,13,5,15,0.00
2013-11-30,55,41,31,39,32,28,90,73,54,30.39,30.12,14,8,18,0.00
2013-12-2,50,39,32,43,36,31,99,90,74,29.99,29.71,12,5,12,0.00
2013-12-3,58,43,30,53,41,28,98,93,82,29.73,29.62,16,4,16,0.00
2013-12-4,60,47,29,56,45,26,99,93,79,29.94,29.55,28,10,28,0.00
2013-12-5,28,22,18,25,14,10,88,73,63,30.39,29.95,26,13,26,0.00
2013-12-6,18,14,10,11,6,2,78,69,53,30.68,30.38,18,11,18,0.00
2013-12-7,22,12,4,8,4,1,85,71,44,30.79,30.54,15,8,15,0.00
2013-12-8,23,20,15,23,17,8,99,88,72,30.54,30.07,17,10,17,0.00
2013-12-9,22,15,6,22,10,2,96,82,68,30.36,30.12,18,9,24,0.00
2013-12-10,32,19,5,17,10,2,89,69,49,30.34,30.17,21,10,28,0.00
2013-12-11,26,16,1,20,8,-5,88,71,44,30.69,30.30,19,8,26,0.00
2013-12-12,40,20,1,20,10,-2,85,67,44,30.66,30.27,20,7,26,0.00
2013-12-13,39,31,25,31,25,17,97,78,52,30.26,30.02,13,4,17,0.00
2013-12-14,81,42,17,71,32,16,99,78,20,30.20,29.94,16,4,19,0.96
2013-12-15,19,16,13,17,15,12,98,95,92,30.21,30.18,10,8,12,0.00
2013-12-18,46,33,10,35,24,7,91,68,50,30.28,29.89,20,10,20,0.00
2013-12-19,52,46,40,48,41,36,99,84,70,29.93,29.78,17,6,17,0.00
2013-12-20,50,35,28,50,31,24,99,85,73,29.95,29.76,11,7,11,0.09
2013-12-21,31,28,27,29,28,26,99,98,91,29.93,29.68,17,10,17,0.01
2013-12-22,32,26,17,30,25,15,99,93,86,30.34,29.71,11,0,11,0.00
2013-12-23,17,10,2,15,6,-4,94,81,71,30.63,30.34,8,1,8,0.00
2013-12-24,21,10,-4,16,4,-8,87,76,63,30.65,30.35,13,5,13,0.00
2013-12-25,32,27,21,30,26,16,99,94,79,30.36,30.23,19,10,22,0.00
2013-12-26,41,32,20,35,28,19,95,86,75,30.35,30.22,15,8,18,0.04
2013-12-27,42,32,27,36,30,27,99,94,79,30.37,30.31,8,5,10,0.00